{"data":{"norad_id":65408,"intl_designator":"2025-192E","name":"STARLINK-35008","alt_names":[],"object_type":"PAYLOAD","status":"ACTIVE","operator":null,"country":"US","launch_date":"2025-08-31","launch_site_code":"AFETR","launch_vehicle":null,"mission":null,"orbit_class":"UNKNOWN","rcs_meters":null,"size_class":null,"mass_kg":null,"dimensions":null,"purposes":["comms"],"wikipedia_slug":null,"has_3d_model":false,"image_url":null,"decayed_at":null,"tle_current":{"epoch":"2026-05-24T23:22:45.177600Z","epoch_age_seconds":80806,"freshness":"FRESH","line1":"1 65408U 25192E   26144.97413400  .00010901  00000+0  37958-3 0  9992","line2":"2 65408  53.1597 238.0204 0001227  94.2401 265.8740 15.30205112 41069","mean_motion":15.30205112,"eccentricity":0.0001227,"inclination_deg":53.1597,"raan_deg":238.0204,"arg_perigee_deg":94.2401,"mean_anomaly_deg":265.874,"bstar":0.00037958,"rev_number":4106,"period_min":94.105031326023,"perigee_km":474.35890152517,"apogee_km":476.04071037735,"semimajor_km":6853.3368059513,"source":"CELESTRAK","updated_at":"2026-05-25T13:38:20.800069Z"}}}